Location: Caltech
(34.1382°N, 118.1253°W)
Time: 07:21:13
(UTC-07:00)

Tiros 1 despin weight - Visible Passes

Search period start: 28 March 2015 00:00
Search period end: 07 April 2015 00:00
Orbit: 599 x 648 km, 48.2° (Epoch: 27 March)

Date Brightness Start Highest point End Pass type
(mag) Time Alt. Az. Time Alt. Az. Time Alt. Az.
28 Mar ? 20:35:04 10° WSW 20:39:32 54° NNW 20:42:59 16° NE visible
28 Mar ? 22:18:56 10° WNW 22:20:13 14° NW 22:20:13 14° NW visible
29 Mar ? 20:53:58 10° W 20:58:02 31° NNW 21:01:09 15° NNE visible
30 Mar ? 19:29:51 10° WSW 19:34:27 76° NW 19:38:59 10° NE visible
30 Mar ? 21:13:17 10° WNW 21:16:42 20° NNW 21:19:06 14° NNE visible
31 Mar ? 19:48:31 10° W 19:52:51 39° NNW 19:57:07 10° NE visible
31 Mar ? 21:32:46 10° NW 21:35:30 15° N 21:36:55 13° N visible
01 Apr ? 20:07:38 10° WNW 20:11:25 24° NNW 20:15:08 10° NNE visible
01 Apr ? 21:52:06 10° NNW 21:54:21 13° N 21:54:35 13° N visible
02 Apr ? 20:27:03 10° WNW 20:30:08 17° NNW 20:33:09 10° NNE visible
02 Apr ? 22:10:53 10° NNW 22:12:11 13° N 22:12:11 13° N visible
03 Apr ? 20:46:30 10° NW 20:48:58 14° N 20:51:23 10° NNE visible
03 Apr ? 22:29:08 10° NNW 22:29:41 12° NNW 22:29:41 12° NNW visible
04 Apr ? 21:05:34 10° NNW 21:07:50 13° N 21:10:00 10° NNE visible
05 Apr ? 19:40:48 10° NW 19:43:34 15° N 19:46:16 10° NNE visible
05 Apr ? 21:24:02 10° NNW 21:26:40 15° N 21:27:26 15° NNE visible
06 Apr ? 20:00:05 10° NNW 20:02:24 14° N 20:04:42 10° NNE visible
06 Apr ? 21:42:08 10° NNW 21:44:51 19° N 21:44:51 19° N visible
